Location: Plainartige
(45.6866°N, 1.7993°E)
Time: 03:20:16
(UTC+00:00)

RS-15 - Pass Details

Date: 04 July 2022
Orbit: 1881 x 2163 km, 64.8° (Epoch: 10 August)

Event Time Altitude Azimuth Distance (km) Brightness Sun altitude
Rises 23:31:22 0° 323° (NW) 5,700 11.5 -21.3°
Reaches altitude 10° 23:34:54 10° 320° (NW) 4,689 10.8 -21.3°
Maximum altitude 23:46:53 61° 245° (WSW) 2,343 8.2 -21.5°
Enters shadow 23:53:36 30° 178° (S) 3,246 8.6 -21.5°
